SAV02P EGPH-ESGG

Flight info

Callsign SAV02P
Flight time N/A
Altitude 39000
Route GRICE P600 ASNUD DCT ALOTI DCT AMSEV DCT KUVUS N607 MAKUR
Aircraft B737/M-SDE2E3FGHIRWXY/LB1

Departure

Time 2026-05-07 13:57
Airport Edinburgh Airport (EGPH)

Arrival

Time N/A
Airport Göteborg Landvetter Airport (ESGG)
Time Latitude Longitude Altitude Speed Heading
2026-05-07 13:55 55.95483 -3.35423 112 ft 0 kts 329°
2026-05-07 13:56 55.95542 -3.35490 112 ft 12 kts 325°
2026-05-07 13:56 55.95540 -3.35660 111 ft 20 kts 238°
2026-05-07 13:56 55.95513 -3.35735 113 ft 25 kts 234°
2026-05-07 13:57 55.95210 -3.36614 114 ft 137 kts 238°
2026-05-07 13:57 55.94641 -3.38413 731 ft 189 kts 238°
2026-05-07 13:57 55.93947 -3.40683 1643 ft 218 kts 239°
2026-05-07 13:57 55.93492 -3.42150 3055 ft 194 kts 236°
2026-05-07 13:58 55.92718 -3.44299 4412 ft 206 kts 233°
2026-05-07 13:58 55.91875 -3.46565 5546 ft 236 kts 234°
2026-05-07 13:58 55.90889 -3.49279 5950 ft 286 kts 236°
2026-05-07 13:58 55.89869 -3.52681 5991 ft 340 kts 251°
2026-05-07 13:59 55.89736 -3.56734 5987 ft 319 kts 279°
2026-05-07 13:59 55.90700 -3.60143 5981 ft 305 kts 309°
2026-05-07 13:59 55.92428 -3.62129 5992 ft 291 kts 339°
2026-05-07 13:59 55.94362 -3.62543 5988 ft 279 kts
2026-05-07 14:00 55.96256 -3.61766 5978 ft 281 kts 24°
2026-05-07 14:00 55.97992 -3.60167 5999 ft 282 kts 24°
2026-05-07 14:00 55.99832 -3.58910 6000 ft 282 kts 15°
2026-05-07 14:00 56.01742 -3.58157 5993 ft 281 kts
2026-05-07 14:01 56.03677 -3.57748 5998 ft 279 kts
2026-05-07 14:01 56.05569 -3.56944 5999 ft 281 kts 21°
2026-05-07 14:01 56.07431 -3.56026 5978 ft 278 kts 356°
2026-05-07 14:01 56.09219 -3.56985 6012 ft 266 kts 319°
2026-05-07 14:02 56.10350 -3.59455 6009 ft 254 kts 294°
2026-05-07 14:02 56.11528 -3.61804 5983 ft 267 kts 325°
2026-05-07 14:02 56.13114 -3.63518 5984 ft 265 kts 318°
2026-05-07 14:02 56.14670 -3.65320 5978 ft 269 kts 328°
2026-05-07 14:03 56.16405 -3.66633 5987 ft 272 kts 336°
2026-05-07 14:03 56.18222 -3.67661 5982 ft 276 kts 342°
2026-05-07 14:03 56.20158 -3.67613 5967 ft 284 kts 16°
2026-05-07 14:03 56.21862 -3.65923 5989 ft 285 kts 35°
2026-05-07 14:04 56.23490 -3.63813 5995 ft 285 kts 37°
2026-05-07 14:04 56.25083 -3.61673 5988 ft 286 kts 37°
2026-05-07 14:04 56.26680 -3.59550 6095 ft 296 kts 36°
2026-05-07 14:04 56.28363 -3.57338 6939 ft 299 kts 36°
2026-05-07 14:05 56.30049 -3.55141 7912 ft 300 kts 36°
2026-05-07 14:05 56.31768 -3.52946 8808 ft 304 kts 35°
2026-05-07 14:05 56.33503 -3.50738 9738 ft 307 kts 35°
2026-05-07 14:05 56.35268 -3.48488 10412 ft 317 kts 35°
2026-05-07 14:06 56.37142 -3.46095 10619 ft 342 kts 35°
2026-05-07 14:06 56.39126 -3.43526 10951 ft 358 kts 35°
2026-05-07 14:06 56.41157 -3.40877 11607 ft 362 kts 36°
2026-05-07 14:06 56.43214 -3.38193 12323 ft 366 kts 35°
2026-05-07 14:07 56.45274 -3.35532 13015 ft 370 kts 34°
2026-05-07 14:07 56.47410 -3.32876 13720 ft 374 kts 34°
2026-05-07 14:07 56.49573 -3.30223 14345 ft 378 kts 33°
2026-05-07 14:07 56.51762 -3.27538 15030 ft 380 kts 33°
2026-05-07 14:08 56.53961 -3.24831 15715 ft 383 kts 34°
2026-05-07 14:08 56.56174 -3.22093 16390 ft 386 kts 34°
2026-05-07 14:08 56.58397 -3.19334 17054 ft 389 kts 34°
2026-05-07 14:08 56.60646 -3.16536 17723 ft 392 kts 34°
2026-05-07 14:09 56.62906 -3.13720 18355 ft 395 kts 34°
2026-05-07 14:09 56.65160 -3.10908 18869 ft 399 kts 34°
2026-05-07 14:09 56.67403 -3.07899 19374 ft 403 kts 42°
2026-05-07 14:09 56.69303 -3.04121 19866 ft 406 kts 54°
2026-05-07 14:10 56.70765 -2.99713 20372 ft 407 kts 67°
2026-05-07 14:10 56.71851 -2.94941 20873 ft 410 kts 70°
2026-05-07 14:10 56.72875 -2.90071 21343 ft 414 kts 71°
2026-05-07 14:10 56.73887 -2.85134 21828 ft 417 kts 71°
2026-05-07 14:11 56.74905 -2.80167 22283 ft 421 kts 71°
2026-05-07 14:11 56.75929 -2.75203 22718 ft 424 kts 71°
2026-05-07 14:11 56.76980 -2.70152 23143 ft 428 kts 71°
2026-05-07 14:11 56.78046 -2.65060 23557 ft 431 kts 71°
2026-05-07 14:12 56.79122 -2.59933 23903 ft 434 kts 71°
2026-05-07 14:12 56.80206 -2.54772 24253 ft 436 kts 71°
2026-05-07 14:12 56.81294 -2.49593 24612 ft 438 kts 71°
2026-05-07 14:12 56.82387 -2.44375 24960 ft 441 kts 71°
2026-05-07 14:13 56.83482 -2.39131 25287 ft 443 kts 71°
2026-05-07 14:13 56.84580 -2.33862 25615 ft 445 kts 71°
2026-05-07 14:13 56.85683 -2.28554 25927 ft 447 kts 71°
2026-05-07 14:13 56.86775 -2.23283 26236 ft 450 kts 71°
2026-05-07 14:14 56.87128 -2.21579 26325 ft 450 kts 71°
2026-05-07 14:14 56.88238 -2.16203 26608 ft 452 kts 71°
2026-05-07 14:14 56.89352 -2.10793 26889 ft 454 kts 71°
2026-05-07 14:14 56.90466 -2.05367 27169 ft 456 kts 71°
2026-05-07 14:15 56.91582 -1.99919 27433 ft 458 kts 71°
2026-05-07 14:15 56.92699 -1.94445 27693 ft 460 kts 71°
2026-05-07 14:15 56.93822 -1.88933 27933 ft 462 kts 71°
2026-05-07 14:15 56.94929 -1.83483 28180 ft 463 kts 71°
2026-05-07 14:16 56.96051 -1.77940 28413 ft 464 kts 71°
2026-05-07 14:16 56.97174 -1.72383 28638 ft 466 kts 71°
2026-05-07 14:16 56.98298 -1.66800 28854 ft 468 kts 71°
2026-05-07 14:16 56.99425 -1.61192 29072 ft 469 kts 71°
2026-05-07 14:17 57.00552 -1.55563 29267 ft 470 kts 71°
2026-05-07 14:17 57.01679 -1.49919 29468 ft 471 kts 71°
2026-05-07 14:17 57.02807 -1.44257 29653 ft 473 kts 71°
2026-05-07 14:17 57.03935 -1.38574 29823 ft 474 kts 71°
2026-05-07 14:18 57.05063 -1.32874 29988 ft 475 kts 71°
2026-05-07 14:18 57.06190 -1.27167 30127 ft 476 kts 71°
2026-05-07 14:18 57.07320 -1.21425 30257 ft 477 kts 71°
2026-05-07 14:18 57.08448 -1.15677 30383 ft 478 kts 71°
2026-05-07 14:19 57.09575 -1.09917 30502 ft 479 kts 71°
2026-05-07 14:19 57.10687 -1.04214 30613 ft 480 kts 71°
2026-05-07 14:19 57.11812 -0.98432 30718 ft 481 kts 71°
2026-05-07 14:19 57.12936 -0.92635 30822 ft 481 kts 71°
2026-05-07 14:20 57.14061 -0.86820 30922 ft 482 kts 71°
2026-05-07 14:20 57.16304 -0.75166 31085 ft 484 kts 71°
2026-05-07 14:21 57.18554 -0.63409 31240 ft 485 kts 72°
2026-05-07 14:21 57.20791 -0.51643 31394 ft 487 kts 72°
2026-05-07 14:22 57.23010 -0.39904 31524 ft 487 kts 72°
2026-05-07 14:22 57.25236 -0.28054 31694 ft 487 kts 72°
2026-05-07 14:23 57.27448 -0.16200 31823 ft 488 kts 72°
2026-05-07 14:23 57.29655 -0.04302 31911 ft 489 kts 72°
2026-05-07 14:24 57.31838 0.07540 32002 ft 490 kts 72°
2026-05-07 14:24 57.34029 0.19497 32156 ft 490 kts 72°
2026-05-07 14:25 57.36204 0.31449 32271 ft 490 kts 72°
2026-05-07 14:25 57.38371 0.43429 32399 ft 489 kts 72°
2026-05-07 14:26 57.40523 0.55409 32519 ft 489 kts 72°
2026-05-07 14:26 57.42653 0.67336 32641 ft 489 kts 72°
2026-05-07 14:27 57.44781 0.79334 32869 ft 487 kts 72°
2026-05-07 14:27 57.45833 0.85293 33137 ft 482 kts 72°
2026-05-07 14:27 57.46869 0.91181 33392 ft 474 kts 72°
2026-05-07 14:27 57.47885 0.96973 33677 ft 468 kts 73°
2026-05-07 14:28 57.48885 1.02692 34058 ft 463 kts 73°
2026-05-07 14:28 57.49873 1.08359 34370 ft 458 kts 73°
2026-05-07 14:28 57.50838 1.13914 34618 ft 456 kts 73°
2026-05-07 14:28 57.51810 1.19526 34791 ft 456 kts 73°
2026-05-07 14:29 57.52780 1.25146 34913 ft 457 kts 73°
2026-05-07 14:29 57.53749 1.30779 35056 ft 457 kts 73°
2026-05-07 14:29 57.54715 1.36410 35223 ft 456 kts 73°
2026-05-07 14:29 57.55677 1.42035 35407 ft 456 kts 73°
2026-05-07 14:30 57.56636 1.47660 35548 ft 456 kts 73°
2026-05-07 14:30 57.57593 1.53289 35693 ft 456 kts 73°
2026-05-07 14:30 57.58547 1.58916 35905 ft 454 kts 73°
2026-05-07 14:30 57.59492 1.64508 36161 ft 451 kts 73°
2026-05-07 14:31 57.60431 1.70085 36414 ft 449 kts 73°
2026-05-07 14:31 57.61361 1.75622 36665 ft 446 kts 73°
2026-05-07 14:31 57.62283 1.81135 36923 ft 444 kts 73°
2026-05-07 14:31 57.63198 1.86617 37188 ft 441 kts 73°